Date String (YYYY-MM-DD hh:mm:ss) UTC,Instrument flags,absolute air pressure of the measurement (hPa),sample flow rate (lpm),inlet stack bypass flow (lpm),air temperature of the measurement (°C),ambient temperature measured by the external sensor (°C),aerosol sample conditioner tube jacket temperature (°C),OPC LED temperature (°C),internal box temperature (°C),relative humidity of the measurement (%),span deviation,mass concentration of particles derived from Lorenz-Mie calculation of OPC scattering (μg/m³),mass concentration of particles derived from Lorenz-Mie calculation of OPC scattering (μg/m³),mass concentration of particles derived from Lorenz-Mie calculation of OPC scattering (μg/m³)
DateTimeUTC,F1_M11,P_M11,Q1_M11,Q2_M11,T1_M11,T2_M11,T3_M11,T4_M11,T5_M11,U1_M11,ZSPAN_M11,X0_M11,X2_M11,X1_M11
2023-11-24 21:00:00,SystemResetWarning,0830.3,5.01,000.00,018.8,017.8,000.0,027.2,020.0,12.5,0000.0,0005.22,0003.50,0003.25
2023-11-24 21:01:00,SystemResetWarning,0830.2,5.00,000.00,018.8,017.8,000.0,027.2,020.0,12.5,0000.0,0005.01,0003.48,0003.25
2023-11-24 21:02:00,SystemResetWarning,0830.2,5.00,000.00,018.8,017.9,000.0,027.2,020.0,12.5,0000.0,0005.03,0003.47,0003.24
2023-11-24 21:03:00,SystemResetWarning,0830.2,5.00,000.00,018.8,017.9,000.0,027.2,020.0,12.4,0000.0,0005.17,0003.48,0003.24
2023-11-24 21:04:00,SystemResetWarning,0830.2,5.00,000.00,018.8,017.9,000.0,027.2,020.0,12.4,0000.0,0005.30,0003.47,0003.24
2023-11-24 21:05:00,SystemResetWarning,0830.2,5.00,000.00,018.8,017.9,000.0,027.2,020.0,12.5,0000.0,0005.93,0003.47,0003.24
2023-11-24 21:06:00,SystemResetWarning,0830.3,4.99,000.00,018.8,017.9,000.0,027.2,020.0,12.5,0000.0,0006.39,0003.47,0003.24
2023-11-24 21:07:00,SystemResetWarning,0830.2,4.99,000.00,018.8,017.9,000.0,027.2,020.0,12.4,0000.0,0006.41,0003.48,0003.25
2023-11-24 21:08:00,SystemResetWarning,0830.2,5.00,000.00,018.8,017.9,000.0,027.2,020.0,12.4,0000.0,0006.37,0003.49,0003.26
2023-11-24 21:09:00,SystemResetWarning,0830.1,5.01,000.00,018.8,017.9,000.0,027.2,020.0,12.5,0000.0,0006.42,0003.51,0003.28
2023-11-24 21:10:00,SystemResetWarning,0830.2,5.01,000.00,018.8,017.9,000.0,027.2,020.0,12.6,0000.0,0006.44,0003.53,0003.29
2023-11-24 21:11:00,SystemResetWarning,0830.1,5.01,000.00,018.8,017.9,000.0,027.2,020.0,12.7,0000.0,0006.17,0003.51,0003.30
2023-11-24 21:12:00,SystemResetWarning,0830.1,4.99,000.00,018.8,017.9,000.0,027.2,020.0,12.7,0000.0,0006.07,0003.50,0003.31
2023-11-24 21:13:00,SystemResetWarning,0830.1,4.99,000.00,018.8,017.9,000.0,027.2,020.0,12.8,0000.0,0006.84,0003.52,0003.32
2023-11-24 21:14:00,SystemResetWarning,0830.1,5.00,000.00,018.8,017.9,000.0,027.2,020.0,12.8,0000.0,0007.25,0003.54,0003.32
2023-11-24 21:15:00,SystemResetWarning,0830.1,5.01,000.00,018.8,017.9,000.0,027.2,020.0,12.7,0000.0,0006.91,0003.54,0003.33
2023-11-24 21:16:00,SystemResetWarning,0830.1,5.01,000.00,018.8,017.9,000.0,027.2,020.0,12.7,0000.0,0006.57,0003.54,0003.34
2023-11-24 21:17:00,SystemResetWarning,0830.1,5.00,000.00,018.8,017.9,000.0,027.2,020.0,12.7,0000.0,0005.81,0003.54,0003.33
2023-11-24 21:18:00,SystemResetWarning,0830.1,4.99,000.00,018.8,017.9,000.0,027.2,020.0,12.7,0000.0,0005.76,0003.53,0003.31
2023-11-24 21:19:00,SystemResetWarning,0830.1,4.99,000.00,018.8,017.9,000.0,027.2,020.0,12.7,0000.0,0005.74,0003.51,0003.29
2023-11-24 21:20:00,SystemResetWarning,0830.1,5.02,000.00,018.8,017.9,000.0,027.2,020.0,12.7,0000.0,0005.80,0003.49,0003.28
2023-11-24 21:21:00,SystemResetWarning,0830.1,5.00,000.00,018.8,017.9,000.0,027.2,020.0,12.7,0000.0,0005.81,0003.48,0003.26
2023-11-24 21:22:00,SystemResetWarning,0830.1,4.99,000.00,018.8,017.9,000.0,027.2,020.0,12.8,0000.0,0005.82,0003.47,0003.25
2023-11-24 21:23:00,SystemResetWarning,0830.1,4.99,000.00,018.8,017.9,000.0,027.2,020.0,12.8,0000.0,0005.82,0003.46,0003.24
2023-11-24 21:24:00,SystemResetWarning,0830.1,5.00,000.00,018.8,017.9,000.0,027.2,020.0,12.7,0000.0,0004.81,0003.44,0003.24
2023-11-24 21:25:00,SystemResetWarning,0830.1,5.00,000.00,018.8,017.9,000.0,027.2,020.0,12.8,0000.0,0004.35,0003.42,0003.23
2023-11-24 21:26:00,SystemResetWarning,0830.2,5.00,000.00,018.8,017.9,000.0,027.2,020.0,12.8,0000.0,0004.45,0003.43,0003.23
2023-11-24 21:27:00,SystemResetWarning,0830.1,5.01,000.00,018.8,017.9,000.0,027.2,020.0,12.9,0000.0,0004.46,0003.43,0003.22
2023-11-24 21:28:00,SystemResetWarning,0830.1,5.00,000.00,018.8,017.9,000.0,027.2,020.0,12.9,0000.0,0004.44,0003.43,0003.23
2023-11-24 21:29:00,SystemResetWarning,0830.1,4.99,000.00,018.9,018.0,000.0,027.2,020.4,12.8,0000.0,0004.49,0003.45,0003.23
2023-11-24 21:30:00,SystemResetWarning,0830.1,5.01,000.00,019.0,018.8,000.0,027.2,020.9,12.7,0000.0,0004.54,0003.45,0003.24
2023-11-24 21:31:00,SystemResetWarning,0830.2,5.00,000.00,019.1,019.0,000.0,027.2,020.8,12.7,0000.0,0004.74,0003.48,0003.23
2023-11-24 21:32:00,SystemResetWarning,0830.1,4.99,000.00,019.1,019.0,000.0,027.3,020.7,12.6,0000.0,0004.78,0003.49,0003.24
2023-11-24 21:33:00,SystemResetWarning,0830.1,4.99,000.00,019.1,018.9,000.0,027.3,020.6,12.6,0000.0,0004.77,0003.49,0003.24
2023-11-24 21:34:00,SystemResetWarning,0830.1,4.99,000.00,019.1,018.8,000.0,027.3,020.4,12.6,0000.0,0004.71,0003.47,0003.24
2023-11-24 21:35:00,SystemResetWarning,0830.1,5.00,000.00,019.1,018.7,000.0,027.3,020.3,12.6,0000.0,0004.79,0003.48,0003.24
2023-11-24 21:36:00,SystemResetWarning,0830.1,5.01,000.00,019.1,018.6,000.0,027.3,020.3,12.6,0000.0,0005.16,0003.51,0003.24
2023-11-24 21:37:00,SystemResetWarning,0830.1,5.00,000.00,019.1,018.5,000.0,027.3,020.2,12.6,0000.0,0005.38,0003.52,0003.24
2023-11-24 21:38:00,SystemResetWarning,0830.1,4.99,000.00,019.1,018.5,000.0,027.3,020.2,12.5,0000.0,0005.43,0003.54,0003.25
2023-11-24 21:39:00,SystemResetWarning,0830.1,4.99,000.00,019.1,018.4,000.0,027.3,020.2,12.5,0000.0,0005.43,0003.54,0003.25
2023-11-24 21:40:00,SystemResetWarning,0830.1,5.00,000.00,019.1,018.4,000.0,027.3,020.2,12.4,0000.0,0005.37,0003.53,0003.26
2023-11-24 21:41:00,SystemResetWarning,0830.1,5.00,000.00,019.0,018.3,000.0,027.3,020.2,12.4,0000.0,0005.33,0003.55,0003.29
2023-11-24 21:42:00,SystemResetWarning,0830.1,5.00,000.00,019.0,018.3,000.0,027.3,020.1,12.4,0000.0,0005.18,0003.57,0003.34
2023-11-24 21:43:00,SystemResetWarning,0830.1,5.00,000.00,019.0,018.3,000.0,027.3,020.1,12.4,0000.0,0005.27,0003.64,0003.41
2023-11-24 21:44:00,SystemResetWarning,0830.1,5.00,000.00,019.0,018.3,000.0,027.3,020.1,12.4,0000.0,0005.55,0003.77,0003.52
2023-11-24 21:45:00,SystemResetWarning,0830.1,4.99,000.00,019.0,018.3,000.0,027.3,020.1,12.4,0000.0,0005.84,0003.88,0003.62
2023-11-24 21:46:00,SystemResetWarning,0830.1,4.99,000.00,019.0,018.2,000.0,027.3,020.1,12.4,0000.0,0006.13,0003.99,0003.70
2023-11-24 21:47:00,SystemResetWarning,0830.1,5.00,000.00,019.0,018.2,000.0,027.3,020.1,12.5,0000.0,0006.09,0004.08,0003.81
2023-11-24 21:48:00,SystemResetWarning,0830.1,5.01,000.00,019.0,018.2,000.0,027.3,020.0,12.5,0000.0,0005.95,0004.17,0003.91
2023-11-24 21:49:00,SystemResetWarning,0830.1,5.01,000.00,019.0,018.2,000.0,027.3,020.0,12.5,0000.0,0006.04,0004.24,0004.00
2023-11-24 21:50:00,SystemResetWarning,0830.1,5.00,000.00,018.9,018.2,000.0,027.3,020.0,12.5,0000.0,0006.18,0004.33,0004.10
2023-11-24 21:51:00,SystemResetWarning,0830.2,4.99,000.00,018.9,018.2,000.0,027.3,020.0,12.5,0000.0,0006.39,0004.44,0004.22
2023-11-24 21:52:00,SystemResetWarning,0830.1,5.00,000.00,018.9,018.2,000.0,027.3,020.0,12.5,0000.0,0006.69,0004.57,0004.33
2023-11-24 21:53:00,SystemResetWarning,0830.2,5.00,000.00,018.9,018.2,000.0,027.3,020.0,12.5,0000.0,0006.90,0004.66,0004.42
2023-11-24 21:54:00,SystemResetWarning,0830.1,5.00,000.00,018.9,018.1,000.0,027.3,020.0,12.5,0000.0,0007.05,0004.72,0004.47
2023-11-24 21:55:00,SystemResetWarning,0830.1,5.00,000.00,018.9,018.1,000.0,027.3,020.0,12.5,0000.0,0006.95,0004.70,0004.47
2023-11-24 21:56:00,SystemResetWarning,0830.1,4.99,000.00,018.9,018.1,000.0,027.3,020.0,12.5,0000.0,0006.92,0004.70,0004.47
2023-11-24 21:57:00,SystemResetWarning,0830.1,4.99,000.00,018.9,018.1,000.0,027.2,020.0,12.5,0000.0,0006.91,0004.70,0004.48
2023-11-24 21:58:00,SystemResetWarning,0830.1,5.01,000.00,018.9,018.1,000.0,027.2,020.0,12.5,0000.0,0006.93,0004.68,0004.46
2023-11-24 21:59:00,SystemResetWarning,0830.2,5.01,000.00,018.9,018.1,000.0,027.2,020.0,12.5,0000.0,0007.00,0004.67,0004.43
